TimeCDT,TemperatureF,Dew PointF,Humidity,Sea Level PressureIn,VisibilityMPH,Wind Direction,Wind SpeedMPH,Gust SpeedMPH,PrecipitationIn,Events,Conditions,WindDirDegrees,DateUTC
12:09 AM,32.0,32.0,100,30.11,10.0,NNW,11.5,17.3,N/A,,Overcast,340,2012-10-06 05:09:00
12:29 AM,32.0,32.0,100,30.11,10.0,NNW,9.2,19.6,N/A,,Overcast,340,2012-10-06 05:29:00
12:49 AM,32.0,32.0,100,30.11,10.0,NNW,11.5,16.1,N/A,,Overcast,340,2012-10-06 05:49:00
1:09 AM,32.0,32.0,100,30.12,10.0,NNW,13.8,23.0,N/A,,Overcast,340,2012-10-06 06:09:00
1:29 AM,32.0,32.0,100,30.12,10.0,NNW,10.4,16.1,N/A,,Mostly Cloudy,340,2012-10-06 06:29:00
1:49 AM,32.0,30.2,93,30.12,10.0,NNW,10.4,20.7,N/A,,Mostly Cloudy,340,2012-10-06 06:49:00
2:09 AM,32.0,32.0,100,30.13,10.0,NNW,11.5,19.6,N/A,,Mostly Cloudy,340,2012-10-06 07:09:00
2:29 AM,33.8,32.0,93,30.13,10.0,NNW,10.4,16.1,N/A,,Mostly Cloudy,330,2012-10-06 07:29:00
2:49 AM,33.8,32.0,93,30.13,10.0,NNW,12.7,20.7,N/A,,Overcast,340,2012-10-06 07:49:00
3:09 AM,33.8,32.0,93,30.13,10.0,NNW,6.9,18.4,N/A,,Overcast,340,2012-10-06 08:09:00
3:29 AM,33.8,32.0,93,30.13,10.0,North,8.1,20.7,N/A,,Overcast,350,2012-10-06 08:29:00
3:49 AM,33.8,32.0,93,30.14,10.0,NNW,9.2,19.6,N/A,,Overcast,340,2012-10-06 08:49:00
4:10 AM,33.8,32.0,93,30.14,10.0,North,10.4,16.1,N/A,,Mostly Cloudy,350,2012-10-06 09:10:00
4:29 AM,32.0,32.0,100,30.15,10.0,NNW,10.4,18.4,N/A,,Mostly Cloudy,340,2012-10-06 09:29:00
4:50 AM,30.2,30.2,100,30.15,10.0,NNW,8.1,16.1,N/A,,Scattered Clouds,340,2012-10-06 09:50:00
5:09 AM,30.2,30.2,100,30.16,10.0,NNW,6.9,-,N/A,,Mostly Cloudy,340,2012-10-06 10:09:00
5:29 AM,32.0,32.0,100,30.16,10.0,NNW,9.2,-,N/A,,Overcast,340,2012-10-06 10:29:00
5:49 AM,33.8,32.0,93,30.16,10.0,NNW,10.4,17.3,N/A,,Overcast,340,2012-10-06 10:49:00
6:09 AM,33.8,32.0,93,30.17,10.0,NNW,11.5,18.4,N/A,,Overcast,330,2012-10-06 11:09:00
6:29 AM,32.0,30.2,93,30.17,10.0,NNW,10.4,16.1,N/A,,Mostly Cloudy,340,2012-10-06 11:29:00
6:49 AM,32.0,30.2,93,30.18,10.0,NNW,8.1,-,N/A,,Mostly Cloudy,340,2012-10-06 11:49:00
7:09 AM,33.8,30.2,87,30.18,10.0,NNW,5.8,-,N/A,,Overcast,340,2012-10-06 12:09:00
7:29 AM,32.0,30.2,93,30.19,10.0,NW,6.9,-,N/A,,Overcast,320,2012-10-06 12:29:00
7:49 AM,33.8,32.0,93,30.19,10.0,NW,5.8,-,N/A,,Overcast,320,2012-10-06 12:49:00
8:09 AM,33.8,32.0,93,30.20,10.0,NW,6.9,-,N/A,,Overcast,320,2012-10-06 13:09:00
8:29 AM,33.8,32.0,93,30.20,10.0,NNW,5.8,-,N/A,,Overcast,330,2012-10-06 13:29:00
8:49 AM,33.8,33.8,100,30.20,10.0,NNW,8.1,-,N/A,,Overcast,330,2012-10-06 13:49:00
9:09 AM,35.6,33.8,93,30.21,10.0,NW,8.1,-,N/A,,Overcast,320,2012-10-06 14:09:00
9:29 AM,35.6,33.8,93,30.21,10.0,NW,6.9,-,N/A,,Overcast,320,2012-10-06 14:29:00
9:50 AM,37.4,33.8,87,30.21,10.0,NW,6.9,-,N/A,,Overcast,320,2012-10-06 14:50:00
10:09 AM,37.4,33.8,87,30.22,10.0,NW,8.1,-,N/A,,Overcast,320,2012-10-06 15:09:00
10:29 AM,37.4,33.8,87,30.22,10.0,NNW,9.2,16.1,N/A,,Overcast,330,2012-10-06 15:29:00
10:49 AM,39.2,33.8,81,30.22,10.0,NNW,6.9,-,N/A,,Overcast,330,2012-10-06 15:49:00
11:09 AM,39.2,33.8,81,30.23,10.0,NNW,15.0,20.7,N/A,,Overcast,330,2012-10-06 16:09:00
11:29 AM,39.2,32.0,75,30.23,10.0,North,10.4,17.3,N/A,,Overcast,350,2012-10-06 16:29:00
11:49 AM,42.8,32.0,66,30.23,10.0,NNW,11.5,-,N/A,,Overcast,330,2012-10-06 16:49:00
12:09 PM,39.2,28.4,65,30.23,10.0,NW,11.5,17.3,N/A,,Overcast,320,2012-10-06 17:09:00
12:29 PM,39.2,30.2,70,30.23,10.0,NW,5.8,-,N/A,,Scattered Clouds,310,2012-10-06 17:29:00
12:49 PM,42.8,32.0,66,30.22,10.0,NW,6.9,-,N/A,,Mostly Cloudy,320,2012-10-06 17:49:00
1:09 PM,42.8,28.4,57,30.22,10.0,North,6.9,-,N/A,,Overcast,10,2012-10-06 18:09:00
1:29 PM,42.8,26.6,53,30.21,10.0,NNW,8.1,-,N/A,,Overcast,330,2012-10-06 18:29:00
1:49 PM,44.6,28.4,53,30.21,10.0,NNW,8.1,-,N/A,,Mostly Cloudy,330,2012-10-06 18:49:00
2:09 PM,42.8,24.8,49,30.20,10.0,NNW,8.1,-,N/A,,Overcast,340,2012-10-06 19:09:00
2:29 PM,42.8,23.0,46,30.19,10.0,NNW,6.9,-,N/A,,Overcast,330,2012-10-06 19:29:00
2:49 PM,42.8,24.8,49,30.19,10.0,NW,5.8,-,N/A,,Overcast,310,2012-10-06 19:49:00
3:09 PM,44.6,24.8,46,30.19,10.0,NNW,9.2,-,N/A,,Mostly Cloudy,330,2012-10-06 20:09:00
3:29 PM,42.8,24.8,49,30.18,10.0,NW,4.6,-,N/A,,Overcast,320,2012-10-06 20:29:00
3:49 PM,44.6,24.8,46,30.18,10.0,West,4.6,-,N/A,,Overcast,270,2012-10-06 20:49:00
4:09 PM,42.8,24.8,49,30.17,10.0,NW,9.2,-,N/A,,Overcast,310,2012-10-06 21:09:00
4:29 PM,42.8,24.8,49,30.17,10.0,West,5.8,-,N/A,,Overcast,270,2012-10-06 21:29:00
4:49 PM,42.8,24.8,49,30.17,10.0,NW,5.8,-,N/A,,Overcast,320,2012-10-06 21:49:00
5:09 PM,41.0,24.8,53,30.17,10.0,West,4.6,-,N/A,,Overcast,260,2012-10-06 22:09:00
5:29 PM,41.0,24.8,53,30.17,10.0,West,6.9,-,N/A,,Overcast,270,2012-10-06 22:29:00
5:49 PM,41.0,24.8,53,30.17,10.0,Calm,Calm,-,N/A,,Mostly Cloudy,0,2012-10-06 22:49:00
6:09 PM,39.2,24.8,56,30.17,10.0,Calm,Calm,-,N/A,,Mostly Cloudy,0,2012-10-06 23:09:00
6:29 PM,39.2,23.0,52,30.17,10.0,West,3.5,-,N/A,,Scattered Clouds,270,2012-10-06 23:29:00
6:49 PM,37.4,23.0,56,30.17,10.0,Calm,Calm,-,N/A,,Clear,0,2012-10-06 23:49:00
7:09 PM,35.6,21.2,56,30.17,10.0,Calm,Calm,-,N/A,,Clear,0,2012-10-07 00:09:00
7:29 PM,33.8,21.2,60,30.17,10.0,Calm,Calm,-,N/A,,Clear,0,2012-10-07 00:29:00
7:49 PM,33.8,21.2,60,30.16,10.0,Calm,Calm,-,N/A,,Clear,0,2012-10-07 00:49:00
8:09 PM,32.0,23.0,69,30.16,10.0,Calm,Calm,-,N/A,,Clear,0,2012-10-07 01:09:00
8:29 PM,32.0,23.0,69,30.16,10.0,Calm,Calm,-,N/A,,Clear,0,2012-10-07 01:29:00
8:49 PM,30.2,21.2,69,30.16,10.0,Calm,Calm,-,N/A,,Clear,0,2012-10-07 01:49:00
9:09 PM,30.2,21.2,69,30.16,10.0,Calm,Calm,-,N/A,,Clear,0,2012-10-07 02:09:00
9:29 PM,28.4,21.2,74,30.15,10.0,South,3.5,-,N/A,,Clear,180,2012-10-07 02:29:00
9:49 PM,28.4,24.8,86,30.15,10.0,South,3.5,-,N/A,,Clear,190,2012-10-07 02:49:00
10:10 PM,28.4,24.8,86,30.15,10.0,SW,3.5,-,N/A,,Clear,230,2012-10-07 03:10:00
10:29 PM,28.4,24.8,86,30.14,10.0,Calm,Calm,-,N/A,,Clear,0,2012-10-07 03:29:00
10:49 PM,26.6,23.0,86,30.14,10.0,Calm,Calm,-,N/A,,Clear,0,2012-10-07 03:49:00
11:09 PM,26.6,21.2,80,30.13,10.0,Calm,Calm,-,N/A,,Clear,0,2012-10-07 04:09:00
11:29 PM,26.6,21.2,80,30.12,10.0,Calm,Calm,-,N/A,,Clear,0,2012-10-07 04:29:00
11:49 PM,24.8,21.2,86,30.11,10.0,South,3.5,-,N/A,,Clear,170,2012-10-07 04:49:00